Hebron, NE

1:24 PM CDT on March 24, 2017 (GMT -0500)
Hebron Municipal

Weather History for KHJH - October, 2011

Change the Weather History Date:

Wednesday, October 26, 2011

  Actual Average Record
Temperature  
Mean Temperature 47 °F -  
Max Temperature 50 °F 63 °F 83 °F (1952)
Min Temperature 44 °F 38 °F 21 °F (1957)
Degree Days  
Heating Degree Days 18    
Moisture  
Dew Point 36 °F    
Average Humidity 68    
Maximum Humidity 87    
Minimum Humidity 57    
Precipitation  
Precipitation 0.00 in - - ()
Sea Level Pressure  
Sea Level Pressure 30.11 in    
Wind  
Wind Speed 10 mph (North)    
Max Wind Speed 15 mph    
Max Gust Speed 21 mph    
Visibility 10 miles    
Events      
Averages and records for this station are not official NWS values.
T = Trace of Precipitation, MM = Missing Value Source: NWS Daily Summary

Daily Weather History Graph

Daily Weather History Graph

Search for Another Location

Airport or City:

Trip Planner

Search our weather history database for the weather conditions in past years. The results will help you decide how hot, cold, wet, or windy it might be!

Date:

Astronomy

Oct. 26, 2011 Rise Set
Actual Time 7:52 AM CDT 6:35 PM CDT
Civil Twilight 7:24 AM CDT 7:03 PM CDT
Nautical Twilight 6:53 AM CDT 7:34 PM CDT
Astronomical Twilight 6:21 AM CDT 8:06 PM CDT
Moon 7:42 AM CDT (10/26) 6:18 PM CDT (10/26)
Length of Visible Light 11h 38m
Length of Day
10h 42m
Waning Crescent, 0% of the Moon is Illuminated
Oct 26
Waning Crescent
Oct 26
New
Nov 2
First Quarter
Nov 10
Full
Nov 18
Last Quarter

Hourly Weather History & Observations

Time (CDT) Temp. Windchill Dew Point Humidity Pressure Visibility Wind Dir Wind Speed Gust Speed Precip Events Conditions
12:15 AM 50.0 °F - 37.4 °F 62% 30.03 in 10.0 mi North 11.5 mph - N/A   Clear
12:35 AM 50.0 °F - 37.4 °F 62% 30.04 in 10.0 mi North 8.1 mph 18.4 mph N/A   Clear
1:15 AM 48.2 °F - 35.6 °F 62% 30.06 in 10.0 mi North 12.7 mph 19.6 mph N/A   Clear
1:35 AM 48.2 °F - 37.4 °F 66% 30.06 in 10.0 mi North 12.7 mph 18.4 mph N/A   Scattered Clouds
1:55 AM 48.2 °F - 37.4 °F 66% 30.06 in 10.0 mi North 12.7 mph 19.6 mph N/A   Scattered Clouds
2:15 AM 46.4 °F 41.5 °F 37.4 °F 71% 30.08 in 10.0 mi North 10.4 mph - N/A   Scattered Clouds
2:35 AM 46.4 °F 40.7 °F 37.4 °F 71% 30.06 in 10.0 mi North 12.7 mph 18.4 mph N/A   Clear
2:55 AM 46.4 °F 41.5 °F 37.4 °F 71% 30.08 in 10.0 mi North 10.4 mph 17.3 mph N/A   Clear
3:15 AM 46.4 °F 41.5 °F 37.4 °F 71% 30.08 in 10.0 mi North 10.4 mph - N/A   Clear
3:35 AM 46.4 °F 41.9 °F 37.4 °F 71% 30.07 in 10.0 mi North 9.2 mph - N/A   Clear
3:55 AM 46.4 °F 41.5 °F 37.4 °F 71% 30.07 in 10.0 mi North 10.4 mph - N/A   Scattered Clouds
4:15 AM 46.4 °F 41.9 °F 37.4 °F 71% 30.05 in 10.0 mi NNE 9.2 mph 18.4 mph N/A   Scattered Clouds
4:35 AM 46.4 °F 42.9 °F 37.4 °F 71% 30.05 in 10.0 mi NNE 6.9 mph - N/A   Clear
5:15 AM 44.6 °F 40.7 °F 37.4 °F 76% 30.05 in 10.0 mi North 6.9 mph - N/A   Clear
5:35 AM 44.6 °F 41.4 °F 37.4 °F 76% 30.06 in 10.0 mi North 5.8 mph - N/A   Clear
6:15 AM 44.6 °F 40.2 °F 39.2 °F 81% 30.09 in 10.0 mi North 8.1 mph - N/A   Clear
6:35 AM 44.6 °F 40.2 °F 39.2 °F 81% 30.10 in 10.0 mi North 8.1 mph - N/A   Clear
6:55 AM 44.6 °F 40.7 °F 39.2 °F 81% 30.10 in 10.0 mi North 6.9 mph - N/A   Clear
7:15 AM 44.6 °F 40.7 °F 41.0 °F 87% 30.11 in 10.0 mi North 6.9 mph - N/A   Mostly Cloudy
7:35 AM 46.4 °F 42.9 °F 41.0 °F 81% 30.11 in 10.0 mi North 6.9 mph - N/A   Overcast
7:55 AM 46.4 °F 43.5 °F 41.0 °F 81% 30.13 in 10.0 mi NNW 5.8 mph - N/A   Overcast
8:15 AM 46.4 °F 41.9 °F 41.0 °F 81% 30.13 in 10.0 mi NNW 9.2 mph - N/A   Overcast
8:35 AM 46.4 °F 40.1 °F 39.2 °F 76% 30.13 in 10.0 mi North 15.0 mph 18.4 mph N/A   Overcast
8:55 AM 46.4 °F 40.7 °F 37.4 °F 71% 30.13 in 10.0 mi North 12.7 mph 19.6 mph N/A   Overcast
9:15 AM 44.6 °F 39.7 °F 37.4 °F 76% 30.14 in 10.0 mi North 9.2 mph - N/A   Overcast
9:35 AM 44.6 °F 39.7 °F 37.4 °F 76% 30.14 in 10.0 mi North 9.2 mph - N/A   Overcast
9:55 AM 44.6 °F 40.2 °F 37.4 °F 76% 30.14 in 10.0 mi North 8.1 mph - N/A   Overcast
10:15 AM 44.6 °F 39.2 °F 37.4 °F 76% 30.14 in 10.0 mi North 10.4 mph - N/A   Overcast
10:55 AM 44.6 °F 39.7 °F 37.4 °F 76% 30.15 in 10.0 mi North 9.2 mph 16.1 mph N/A   Overcast
11:15 AM 44.6 °F 39.7 °F 37.4 °F 76% 30.15 in 10.0 mi North 9.2 mph - N/A   Overcast
11:35 AM 44.6 °F 38.1 °F 35.6 °F 71% 30.15 in 10.0 mi North 13.8 mph 20.7 mph N/A   Overcast
11:55 AM 46.4 °F 41.1 °F 35.6 °F 66% 30.16 in 10.0 mi North 11.5 mph 18.4 mph N/A   Overcast
12:15 PM 46.4 °F 40.4 °F 35.6 °F 66% 30.17 in 10.0 mi North 13.8 mph 19.6 mph N/A   Overcast
12:35 PM 44.6 °F 39.2 °F 35.6 °F 71% 30.16 in 10.0 mi North 10.4 mph 17.3 mph N/A   Overcast
12:55 PM 46.4 °F 40.7 °F 35.6 °F 66% 30.15 in 10.0 mi North 12.7 mph - N/A   Overcast
1:15 PM 46.4 °F 41.1 °F 35.6 °F 66% 30.14 in 10.0 mi North 11.5 mph - N/A   Overcast
1:35 PM 46.4 °F 41.5 °F 33.8 °F 62% 30.12 in 10.0 mi North 10.4 mph 18.4 mph N/A   Overcast
1:55 PM 48.2 °F - 33.8 °F 58% 30.12 in 10.0 mi North 12.7 mph 18.4 mph N/A   Overcast
2:15 PM 48.2 °F - 33.8 °F 58% 30.12 in 10.0 mi North 9.2 mph 17.3 mph N/A   Overcast
2:35 PM 48.2 °F - 33.8 °F 58% 30.12 in 10.0 mi North 9.2 mph - N/A   Overcast
2:55 PM 46.4 °F 41.5 °F 33.8 °F 62% 30.11 in 10.0 mi North 10.4 mph 17.3 mph N/A   Overcast
3:15 PM 46.4 °F 41.9 °F 33.8 °F 62% 30.12 in 10.0 mi North 9.2 mph 17.3 mph N/A   Overcast
3:35 PM 46.4 °F 41.5 °F 33.8 °F 62% 30.12 in 10.0 mi North 10.4 mph 16.1 mph N/A   Overcast
3:55 PM 48.2 °F - 33.8 °F 58% 30.12 in 10.0 mi NNW 9.2 mph - N/A   Overcast
4:15 PM 48.2 °F - 33.8 °F 58% 30.12 in 10.0 mi North 10.4 mph 16.1 mph N/A   Mostly Cloudy
4:35 PM 48.2 °F - 33.8 °F 58% 30.12 in 10.0 mi North 8.1 mph - N/A   Mostly Cloudy
4:55 PM 48.2 °F - 33.8 °F 58% 30.12 in 10.0 mi North 6.9 mph - N/A   Mostly Cloudy
5:15 PM 48.2 °F - 33.8 °F 58% 30.12 in 10.0 mi North 10.4 mph - N/A   Mostly Cloudy
5:35 PM 48.2 °F - 33.8 °F 58% 30.12 in 10.0 mi North 8.1 mph - N/A   Mostly Cloudy
5:55 PM 46.4 °F 42.4 °F 32.0 °F 57% 30.12 in 10.0 mi North 8.1 mph - N/A   Overcast
6:15 PM 46.4 °F 42.4 °F 33.8 °F 62% 30.12 in 10.0 mi North 8.1 mph - N/A   Overcast
6:35 PM 46.4 °F 43.5 °F 32.0 °F 57% 30.12 in 10.0 mi North 5.8 mph - N/A   Overcast
7:15 PM 46.4 °F 43.5 °F 32.0 °F 57% 30.12 in 10.0 mi North 5.8 mph - N/A   Scattered Clouds
7:35 PM 46.4 °F 42.9 °F 33.8 °F 62% 30.13 in 10.0 mi North 6.9 mph - N/A   Mostly Cloudy
7:55 PM 46.4 °F 43.5 °F 33.8 °F 62% 30.13 in 10.0 mi North 5.8 mph - N/A   Overcast
8:15 PM 44.6 °F 42.2 °F 33.8 °F 66% 30.14 in 10.0 mi North 4.6 mph - N/A   Overcast
8:35 PM 44.6 °F 43.1 °F 33.8 °F 66% 30.14 in 10.0 mi NNW 3.5 mph - N/A   Overcast
8:55 PM 44.6 °F - 33.8 °F 66% 30.14 in 10.0 mi Calm Calm - N/A   Overcast
9:15 PM 44.6 °F 42.2 °F 33.8 °F 66% 30.15 in 10.0 mi NNW 4.6 mph - N/A   Mostly Cloudy
9:35 PM 44.6 °F 42.2 °F 33.8 °F 66% 30.14 in 10.0 mi North 4.6 mph - N/A   Scattered Clouds
9:55 PM 44.6 °F 42.2 °F 32.0 °F 61% 30.15 in 10.0 mi NNW 4.6 mph - N/A   Scattered Clouds
10:15 PM 42.8 °F 41.1 °F 32.0 °F 66% 30.16 in 10.0 mi NNW 3.5 mph - N/A   Overcast
10:35 PM 42.8 °F - 33.8 °F 70% 30.17 in 10.0 mi Calm Calm - N/A   Overcast
10:55 PM 41.0 °F 39.0 °F 32.0 °F 70% 30.16 in 10.0 mi NNW 3.5 mph - N/A   Mostly Cloudy
11:15 PM 42.8 °F - 32.0 °F 66% 30.16 in 10.0 mi Calm Calm - N/A   Overcast
11:35 PM 42.8 °F - 33.8 °F 70% 30.16 in 10.0 mi Calm Calm - N/A   Overcast
11:55 PM 42.8 °F 41.1 °F 33.8 °F 70% 30.15 in 10.0 mi NW 3.5 mph - N/A   Mostly Cloudy